Location: Forli
(44.2227°N, 12.0407°E)
Time: 03:29:05
(UTC+02:00)

DX 1 - Pass Details

Date: 17 April 2026
Orbit: 593 x 604 km, 98.4° (Epoch: 19 May)

Event Time Altitude Azimuth Distance (km) Brightness Sun altitude
Rises 05:10:49 0° 2° (N) 2,842 ? -13.2°
Reaches altitude 10° 05:13:16 10° 349° (N) 1,935 ? -12.8°
Maximum altitude 05:16:42 25° 294° (WNW) 1,211 ? -12.2°
Enters shadow 05:18:47 17° 253° (WSW) 1,513 ? -11.9°
